Location: Biltmore Gardens
(41.6070°N, 83.4666°W)
Time: 13:59:47
(UTC+00:00)

Cosmos 1825 - Pass Details

Date: 14 July 2020
Orbit: 502 x 509 km, 82.5° (Epoch: 12 August)

Event Time Altitude Azimuth Distance (km) Brightness Sun altitude
Exits shadow 03:25:56 60° 157° (SSE) 584 2.1 -19.6°
Maximum altitude 03:26:29 75° 97° (E) 532 2.0 -19.6°
Drops below altitude 10° 03:30:17 10° 11° (NNE) 1,736 5.5 -20.0°
Sets 03:32:25 0° 10° (N) 2,626 6.5 -20.2°
